SENTINEL-2A

Last updated on Mon Sep 07 2026 00:02:45 GMT+0000 (Coordinated Universal Time)

1 40697U 15028A 26249.61327687 .00000319 00000+0 13844-3 0 9990 2 40697 98.5625 323.2847 0001245 83.4599 276.6726 14.30820204585370
UTC large
Height (km)
Speed (km/s)
/
Latitude / Longitude
Inclination (degrees)
Orbital Period (minutes)
Azimuth
Elevation
Range (km)
Doppler Factor

Next 0 passes for location: London (51.5072 / 0.1276)

No passes found over London.
SENTINEL-2A